User: anonymous   Login
Location: Bouchavesnes-Bergen
(49.9859°N, 2.9203°E)
Time: 22:56:44
(UTC+00:00)
Language:

CZ-4B R/B - Orbit

View from above orbital plane
View from above orbital plane
View from above satellite
View from above satellite

Ground track
Ground track

The orbit data is extracted from the following two-line orbital elements,

1 32959U 08026B   21125.45615745  .00000005  00000-0  15983-4 0  9997
2 32959  98.8923  84.2799 0071235  58.4849  50.8896 14.41795279680823
Epoch (UTC): 05 May 2021 10:56:52
Eccentricity: 0.0071235
inclination: 98.8923°
perigee height: 702 km
apogee height: 803 km
right ascension of ascending node: 84.2799°
argument of perigee: 58.4849°
revolutions per day: 14.41795279
mean anomaly at epoch: 50.8896°
orbit number at epoch: 68082

The dashed part of the orbit path shows where the satellite is in the earth's shadow,  

DLR